This demonstration page uses our WeatherBlox Daily Observations layout. Learn more.

Left ArrowRight Arrow

40.97296, -117.73568

Hourly Observations for August 18, 2020

Temp ( °F °C ) Dew Point ( °F °C ) Humidity (%) Winds ( mph kmh ) Pressure ( in mb ) Visibility ( mi km ) Precip ( " mm )
12:56 am 00:56 Partly Cloudy 78 25.6 48 8.9 35 35 ENE 13 20 30.07 1018 10 16 0.00 0.00
1:56 am 01:56 Clear 73 22.8 53 11.7 50 50 S 6 9 30.09 1019 10 16 0.00 0.00
2:56 am 02:56 Clear 71 21.7 53 11.7 53 53 NNE 5 7 30.08 1019 10 16 0.00 0.00
3:56 am 03:56 Mostly Clear 70 21.1 53 11.7 55 55 WNW 7 11 30.09 1019 10 16 0.00 0.00
4:56 am 04:56 Clear 66 18.9 54 12.2 65 65 SSW 3 6 30.10 1019 10 16 0.00 0.00
5:56 am 05:56 Clear 67 19.4 53 11.7 61 61 Calm 30.09 1019 10 16 0.00 0.00
6:56 am 06:56 Sunny 67 19.4 54 12.2 63 63 E 3 6 30.11 1020 10 16 0.00 0.00
7:56 am 07:56 Sunny 71 21.7 54 12.2 55 55 SSE 8 13 30.12 1020 10 16 0.00 0.00
8:56 am 08:56 Sunny 77 25 53 11.7 43 43 SSE 7 11 30.11 1020 10 16 0.00 0.00
9:56 am 09:56 Sunny 82 27.8 52 11.1 35 35 S 5 7 30.11 1020 10 16 0.00 0.00
10:56 am 10:56 Sunny 87 30.6 48 8.9 26 26 Calm 30.10 1019 10 16 0.00 0.00
11:56 am 11:56 Sunny 91 32.8 47 8.3 22 22 VRB 6 9 30.06 1018 10 16 0.00 0.00
12:56 pm 12:56 Sunny 95 35 46 7.8 19 19 WNW 9 15 30.02 1017 10 16 0.00 0.00
1:56 pm 13:56 Mostly Sunny 98 36.7 46 7.8 17 17 VRB 3 6 29.99 1016 10 16 0.00 0.00
2:56 pm 14:56 Mostly Sunny 97 36.1 48 8.9 19 19 S 5 7 29.97 1015 10 16 0.00 0.00
3:56 pm 15:56 Sunny 100 37.8 44 6.7 15 15 Calm 29.94 1014 10 16 0.00 0.00
4:56 pm 16:56 Mostly Cloudy 100 37.8 40 4.4 13 13 W 12 19 29.91 1013 10 16 0.00 0.00
5:56 pm 17:56 Mostly Sunny 97 36.1 40 4.4 14 14 W 8 13 29.90 1013 10 16 0.00 0.00
6:56 pm 18:56 Mostly Sunny 93 33.9 35 1.7 13 13 WSW 14 22 29.92 1013 10 16 0.00 0.00
7:25 pm 19:25 Partly Cloudy with Nearby Thunderstorms 91 32.8 36 2.2 14 14 WNW 17 28 29.72 1006 10 16 0.00 0.00
7:56 pm 19:56 Mostly Clear with Nearby Thunderstorms 75 23.9 55 12.8 50 50 WNW 18 30 30.01 1016 10 16 0.00 0.00
8:30 pm 20:30 Mostly Cloudy with Thunderstorms 82 27.8 45 7.2 27 27 NW 16 26 29.90 1012 10 16 0.03 0.76
8:45 pm 20:45 Cloudy with Nearby Thunderstorms 80 26.7 47 8.3 31 31 NNW 6 9 29.92 1013 10 16 0.04 1.02
8:56 pm 20:56 Cloudy 80 26.7 46 7.8 30 30 E 7 11 30.08 1019 10 16 0.04 1.02
9:56 pm 21:56 Mostly Clear 81 27.2 45 7.2 28 28 E 8 13 30.00 1016 10 16 0.00 0.00
10:56 pm 22:56 Clear 81 27.2 42 5.6 25 25 SSE 9 15 29.96 1014 10 16 0.00 0.00
11:56 pm 23:56 Clear 76 24.4 46 7.8 35 35 S 10 17 29.96 1015 10 16 0.00 0.00

Powered by AerisWeather